Vorticity
nan nan nan nan nan nan nan nan nan nan nan nan nan nan nan nan nan nan nan nan nan nan nan nan nan nan nan nan nan nan nan nan nan nan nan nan nan nan nan nan nan nan nan
nan 8 7 5 4 4 5 5 5 5 6 6 6 5 4 4 4 5 5 5 5 6 4 3 5 6 5 3 3 5 6 6 7 7 5 1 1 3 4 5 6 8 nan
nan 8 7 6 5 5 4 5 4 6 6 6 5 5 5 6 5 6 6 5 5 6 5 4 4 4 4 3 4 4 4 5 5 3 1 2 3 6 4 5 6 7 nan
nan 6 8 7 5 4 5 5 5 6 6 4 4 6 5 5 6 6 6 5 6 6 6 6 5 5 3 3 3 3 3 3 2 3 2 6 6 4 4 6 6 4 nan
nan 7 9 8 4 5 5 4 5 4 5 5 5 5 5 5 5 5 5 5 5 6 7 6 5 4 3 3 2 3 4 3 2 1 5 8 8 8 6 6 5 5 nan
nan 7 10 8 6 5 5 5 6 5 4 4 3 5 10 1 5 5 4 6 6 6 7 6 4 2 4 4 2 6 7 3 1 3 7 7 10 9 6 6 5 6 nan
nan 11 11 9 7 7 6 5 4 4 3 5 5 -2 7 5 7 5 5 6 6 6 6 5 3 3 5 3 5 9 8 3 3 5 7 6 11 8 5 5 6 5 nan
nan 8 11 9 7 8 8 7 7 5 5 4 6 7 -1 5 2 2 5 7 7 8 5 4 2 4 3 5 8 10 6 5 4 5 7 8 11 7 6 5 5 6 nan
nan 7 7 8 9 7 8 9 8 8 4 6 6 4 1 8 1 7 5 5 7 6 4 4 4 5 4 5 11 12 5 4 4 5 5 9 11 7 5 5 6 6 nan
nan 6 6 6 8 8 9 9 11 10 9 9 5 5 4 2 4 5 5 8 7 5 4 4 5 4 5 8 12 7 5 0 3 5 6 15 10 6 6 5 5 5 nan
nan 6 6 7 6 7 8 9 8 10 16 13 7 2 -0 3 11 6 8 9 6 5 5 5 4 4 4 7 9 2 -2 2 6 5 11 14 7 5 5 6 6 5 nan
nan 6 6 7 6 6 7 7 8 8 13 12 6 4 6 6 8 9 10 7 3 4 6 6 5 0 1 4 4 1 3 8 5 6 11 11 7 5 5 5 5 5 nan
nan 6 9 7 7 6 6 7 8 8 8 14 13 8 6 5 5 6 7 4 7 5 5 8 2 4 5 6 7 7 8 6 6 9 11 10 7 6 5 5 5 5 nan
nan 7 7 7 7 5 6 7 7 9 9 7 10 9 7 8 7 6 7 7 6 6 7 6 5 9 6 7 9 9 6 6 8 9 10 11 8 6 5 5 5 6 nan
nan 8 7 6 6 7 7 8 8 7 8 10 9 8 5 7 7 8 8 7 5 6 7 7 8 7 7 7 9 7 7 8 8 7 10 9 8 8 5 5 5 5 nan
nan 8 7 6 7 7 7 7 6 8 8 8 12 12 5 6 7 8 7 6 7 7 9 7 8 7 7 7 9 8 7 7 8 8 8 8 9 7 7 6 5 5 nan
nan 8 7 7 8 7 6 6 8 8 9 12 16 12 8 4 8 8 6 7 7 7 7 7 7 8 8 8 9 7 7 8 7 7 6 9 10 9 8 8 6 6 nan
nan 7 6 9 9 8 9 8 8 7 7 16 15 14 13 6 5 6 6 7 7 7 7 6 5 7 7 7 8 8 7 8 8 8 6 6 7 9 11 9 8 7 nan
nan 5 7 9 8 8 9 11 10 7 9 9 10 16 13 7 5 5 6 8 8 7 7 5 6 8 7 7 8 9 8 8 9 7 7 7 7 6 10 11 9 8 nan
nan 7 6 7 8 6 7 9 10 7 8 10 11 8 8 9 8 5 7 9 6 6 6 8 6 6 9 8 8 8 8 8 9 9 8 6 7 7 7 9 9 12 nan
nan 8 7 7 7 5 6 8 10 9 6 8 12 11 4 7 7 5 7 8 7 7 7 4 7 7 6 7 6 7 10 10 9 8 8 8 7 7 7 7 7 8 nan
nan 5 6 8 7 5 7 8 9 12 12 8 9 10 8 9 8 6 8 7 5 7 9 7 3 3 10 8 5 7 8 7 11 10 9 10 8 9 8 7 7 6 nan
nan 7 6 7 7 6 6 6 7 8 12 12 8 8 12 10 9 8 7 8 6 6 8 9 8 6 3 8 9 4 8 9 9 10 9 9 9 8 9 10 8 7 nan
nan 7 9 8 7 7 7 7 6 6 7 10 11 9 9 11 8 9 8 9 6 8 9 8 7 8 10 6 4 9 10 12 6 8 11 11 10 9 8 9 10 10 nan
nan 8 8 8 8 8 7 6 6 7 6 7 10 13 10 9 10 9 10 10 8 9 12 10 9 7 7 11 7 7 7 7 9 11 8 6 11 12 11 10 10 10 nan
nan nan nan nan nan nan nan nan nan nan nan nan nan nan nan nan nan nan nan nan nan nan nan nan nan nan nan nan nan nan nan nan nan nan nan nan nan nan nan nan nan nan nan
CAPE
1458 1419 1569 1768 1767 1625 1578 1471 1508 1714 1734 1766 1710 1654 1630 1613 1545 1514 1460 1341 1364 1425 1109 1013 1211 1372 1125 798 858 891 811 675 604 627 601 276 168 120 109 107 143 57 123
1384 1529 1583 1773 1791 1712 1731 1640 1722 1897 1967 1919 1824 1669 1536 1472 1410 1377 1372 1386 1442 1352 957 847 880 917 859 591 682 475 400 366 393 405 368 274 85 79 65 58 125 51 64
1596 1627 1582 1687 1868 1892 1911 1864 1973 2159 2208 2023 1855 1686 1592 1520 1402 1335 1349 1389 1397 1274 654 468 530 642 524 519 460 376 143 49 18 13 0 0 22 52 41 43 123 54 57
1679 1718 1618 1654 1857 2001 2006 2009 2137 2248 2248 2037 1894 1735 1625 1536 1513 1518 1358 1215 1262 1170 741 795 486 362 370 417 327 228 60 16 0 0 0 0 13 35 35 32 36 43 38
1591 1893 1728 1620 1782 1988 2095 2086 2151 2246 2136 2017 1897 1835 1721 1703 1650 1506 1247 1077 1111 1062 631 621 420 175 258 140 184 224 69 2 0 0 0 0 0 25 25 32 27 15 21
1342 1652 1856 1548 1681 1952 2176 2220 2207 2231 2007 1915 1927 1855 1917 1889 1764 1487 1254 1169 1095 954 600 406 307 414 299 245 288 17 35 0 0 0 0 9 10 28 24 25 24 20 21
1229 1410 1615 1602 1688 1973 2273 2296 2179 2127 1951 1887 1783 1289 883 1351 1549 1335 1184 1071 933 850 692 593 527 330 129 28 10 0 0 0 0 0 0 5 13 12 14 17 6 8 9
1106 1131 1267 1500 1861 2026 2166 2147 2061 1826 1861 1588 1052 593 465 856 1234 1147 1105 992 774 657 466 439 241 52 2 0 0 0 0 0 0 0 0 0 23 17 14 9 9 14 10
1130 899 1024 1283 1522 1757 2168 2128 1851 1722 1371 1054 559 334 653 594 539 826 878 901 698 483 396 292 99 31 4 0 0 7 0 0 0 0 0 0 30 19 14 14 14 12 10
926 811 583 379 400 403 972 864 1151 1567 1025 710 230 145 90 34 173 577 632 725 568 390 283 189 67 15 0 0 6 0 0 0 0 0 0 2 27 15 13 17 14 13 16
415 330 335 198 0 0 0 16 157 161 546 341 214 57 35 3 129 576 445 354 318 205 178 146 54 22 1 0 1 0 0 0 0 0 0 22 17 16 18 15 12 11 9
456 182 164 32 0 0 0 0 0 0 95 250 114 102 139 39 164 284 235 173 166 141 121 86 26 0 0 0 0 0 0 0 0 0 0 19 17 15 19 12 8 7 7
385 230 153 35 0 0 0 0 1 1 0 42 38 124 168 140 156 180 145 74 41 53 1 4 0 0 0 0 0 0 0 0 0 0 0 11 11 11 11 6 5 6 7
403 254 162 75 0 0 0 0 1 1 1 12 27 35 63 102 82 142 85 4 0 0 0 0 0 0 0 0 0 0 0 0 0 0 0 5 9 7 4 6 6 7 8
473 207 56 0 0 0 0 0 0 1 1 2 3 2 7 105 92 67 12 0 0 0 0 0 0 0 0 0 0 0 0 0 0 0 0 0 10 7 4 4 7 7 12
373 160 0 0 0 0 0 0 0 1 2 6 7 1 0 75 91 28 0 0 0 0 0 0 0 0 0 0 0 0 0 0 0 0 0 0 0 9 9 6 6 8 12
333 72 0 0 0 0 0 0 1 0 1 13 14 3 11 73 58 0 0 0 0 0 0 0 0 0 0 0 0 0 0 0 0 0 0 0 0 0 7 10 9 9 11
67 5 0 53 1 0 0 0 2 0 0 18 7 81 76 50 62 0 0 0 0 0 0 0 0 0 0 0 0 0 0 0 0 0 0 0 0 0 0 7 16 17 14
18 0 0 1 0 0 3 0 1 0 0 34 0 80 110 103 42 0 0 0 0 0 0 0 0 0 0 0 0 0 0 0 0 0 0 0 0 0 0 0 7 11 12
0 0 0 0 0 0 0 2 2 1 1 31 66 42 107 108 42 0 0 0 0 0 0 0 0 0 0 0 0 0 0 0 0 0 0 0 0 0 0 0 0 0 0
0 0 0 0 0 0 0 0 2 3 2 1 16 35 68 58 43 9 0 0 0 0 0 0 0 0 0 0 0 0 0 0 0 0 0 0 0 0 0 0 0 0 0
0 0 0 0 0 0 0 0 0 0 3 1 1 32 60 27 6 9 0 0 0 0 1 0 0 0 0 0 0 0 0 0 0 0 0 0 0 0 0 0 0 0 0
0 0 0 0 0 0 0 0 0 0 1 12 2 2 19 2 0 1 3 0 1 0 1 0 0 0 0 0 0 0 0 0 0 0 0 0 0 0 0 0 0 0 0
0 0 0 0 0 0 0 0 0 0 0 0 27 4 34 0 0 3 3 0 10 6 6 0 0 0 0 0 0 0 0 0 0 0 0 0 0 0 0 0 0 0 0
0 0 0 0 0 0 0 0 0 0 0 0 0 10 12 1 0 0 0 0 9 3 2 0 0 0 0 0 0 0 0 0 0 0 0 0 0 0 0 0 0 0 0
0 0 0 0 0 0 0 0 0 0 6 3 7 2 5 5 1 0 0 0 1 0 0 0 0 0 0 0 0 0 0 0 0 0 0 0 0 0 0 0 0 0 0